Change the Weather History Date:

Wednesday, March 26, 2014

  Actual Average Record
Temperature  
Mean Temperature 52 °F 64 °F  
Max Temperature 60 °F 75 °F 88 °F (1907)
Min Temperature 43 °F 54 °F 34 °F (1955)
Degree Days  
Heating Degree Days 13 3  
Month to date heating degree days 215 135  
Since 1 July heating degree days 1875 1365  
Cooling Degree Days 0 3  
Month to date cooling degree days 17 48  
Year to date cooling degree days 31 80  
Growing Degree Days 1 (Base 50)    
Moisture  
Dew Point 35 °F    
Average Humidity 56    
Maximum Humidity 74    
Minimum Humidity 37    
Precipitation  
Precipitation 0.02 in 0.12 in 2.06 in (1967)
Month to date precipitation 1.86 3.21  
Year to date precipitation 9.11 13.33  
Snow  
Snow 0.00 in 0.00 in 0.00 in ()
Month to date snowfall 0.0 0.0  
Since 1 July snowfall 0.8 T  
Snow Depth 0.00 in    
Sea Level Pressure  
Sea Level Pressure 30.25 in    
Wind  
Wind Speed 6 mph (ESE)    
Max Wind Speed 15 mph    
Max Gust Speed 22 mph    
Visibility 10 miles    
Events Rain    
T = Trace of Precipitation, MM = Missing Value Source: NWS Daily Summary

Daily Weather History Graph

Daily Weather History Graph

Search for Another Location

Airport or City:

Trip Planner

Search our weather history database for the weather conditions in past years. The results will help you decide how hot, cold, wet, or windy it might be!

Date:

Astronomy

Mar. 26, 2014 Rise Set
Actual Time 7:04 AM CDT 7:23 PM CDT
Civil Twilight 6:40 AM CDT 7:47 PM CDT
Nautical Twilight 6:12 AM CDT 8:15 PM CDT
Astronomical Twilight 5:44 AM CDT 8:43 PM CDT
Moon 3:55 AM CDT (3/26) 3:18 PM CDT (3/26)
Length of Visible Light 13h 06m
Length of Day
12h 18m
Waning Crescent, 21% of the Moon is Illuminated
Mar 26
Waning Crescent
Mar 30
New
Apr 7
First Quarter
Apr 15
Full
Apr 22
Last Quarter

Hourly Weather History & Observations

Time (CDT) Temp. Windchill Dew Point Humidity Pressure Visibility Wind Dir Wind Speed Gust Speed Precip Events Conditions
12:53 AM 50.0 °F - 33.1 °F 52% 30.26 in 10.0 mi East 3.5 mph - N/A   Clear
1:53 AM 48.0 °F - 33.1 °F 56% 30.25 in 10.0 mi East 3.5 mph - N/A   Clear
2:53 AM 48.0 °F - 30.9 °F 52% 30.26 in 10.0 mi ESE 3.5 mph - N/A   Clear
3:53 AM 46.0 °F - 34.0 °F 63% 30.26 in 10.0 mi Calm Calm - N/A   Clear
4:53 AM 45.0 °F 42.6 °F 30.9 °F 58% 30.24 in 10.0 mi East 4.6 mph - N/A   Clear
5:53 AM 44.1 °F 42.5 °F 30.9 °F 60% 30.27 in 10.0 mi East 3.5 mph - N/A   Clear
6:53 AM 43.0 °F - 32.0 °F 65% 30.29 in 10.0 mi Calm Calm - N/A   Clear
7:53 AM 45.0 °F - 33.1 °F 63% 30.33 in 10.0 mi Calm Calm - N/A   Clear
8:53 AM 46.9 °F - 35.1 °F 63% 30.34 in 10.0 mi East 4.6 mph - N/A   Clear
9:53 AM 50.0 °F - 37.0 °F 61% 30.34 in 10.0 mi Variable 6.9 mph - N/A   Clear
10:53 AM 53.1 °F - 33.1 °F 47% 30.34 in 10.0 mi ESE 5.8 mph - N/A   Clear
11:53 AM 54.0 °F - 32.0 °F 43% 30.33 in 10.0 mi SE 8.1 mph - N/A   Clear
12:53 PM 55.0 °F - 33.1 °F 43% 30.32 in 10.0 mi SSE 9.2 mph - N/A   Clear
1:53 PM 55.9 °F - 34.0 °F 44% 30.24 in 10.0 mi East 15.0 mph 21.9 mph N/A   Clear
2:53 PM 59.0 °F - 34.0 °F 39% 30.22 in 10.0 mi ESE 10.4 mph 19.6 mph N/A   Clear
3:53 PM 59.0 °F - 33.1 °F 38% 30.19 in 10.0 mi Variable 5.8 mph - N/A   Clear
4:53 PM 59.0 °F - 35.1 °F 41% 30.18 in 10.0 mi ESE 5.8 mph - N/A   Overcast
5:53 PM 57.9 °F - 36.0 °F 44% 30.19 in 10.0 mi ESE 4.6 mph - N/A   Overcast
6:53 PM 57.0 °F - 37.9 °F 49% 30.20 in 10.0 mi SSE 4.6 mph - N/A   Overcast
7:53 PM 55.0 °F - 41.0 °F 59% 30.19 in 10.0 mi SSE 9.2 mph - 0.00 in   Overcast
8:53 PM 51.1 °F - 43.0 °F 74% 30.16 in 10.0 mi Variable 6.9 mph - 0.01 in Rain Light Rain
9:53 PM 50.0 °F - 43.0 °F 77% 30.18 in 10.0 mi ENE 5.8 mph - 0.01 in   Mostly Cloudy
10:53 PM 51.1 °F - 43.0 °F 74% 30.16 in 10.0 mi ESE 5.8 mph - N/A   Scattered Clouds
11:53 PM 50.0 °F - 43.0 °F 77% 30.15 in 10.0 mi East 4.6 mph - N/A   Clear